| time (UTC) | temp C | wind direction | speed KPH | gust KPH | rain 1hr cm | rain 24hr cm | rain mn cm | humidity % | barometer mb |
| 20260504081527 | 1 | 0 | 0.0 | 0.0 | 0.00 | 0.00 | 0.00 | 88 | 1014.3 |
| 20260504044526 | 3 | 0 | 0.0 | 0.0 | 0.00 | 0.00 | 0.00 | 83 | 1014.0 |
| 20260504043029 | 3 | 0 | 0.0 | 0.0 | 0.00 | 0.00 | 0.00 | 82 | 1013.8 |
| 20260504041534 | 4 | 0 | 0.0 | 0.0 | 0.00 | 0.00 | 0.00 | 82 | 1013.6 |
| 20260504040030 | 4 | 0 | 0.0 | 0.0 | 0.00 | 0.00 | 0.00 | 82 | 1013.6 |
| 20260504034526 | 4 | 0 | 0.0 | 0.0 | 0.00 | 0.00 | 0.00 | 82 | 1013.4 |
| 20260504033028 | 4 | 0 | 0.0 | 0.0 | 0.00 | 0.00 | 0.00 | 81 | 1013.4 |
| 20260504031528 | 5 | 0 | 0.0 | 0.0 | 0.00 | 0.00 | 0.00 | 81 | 1013.3 |
| 20260504030029 | 5 | 0 | 0.0 | 0.0 | 0.00 | 0.00 | 0.00 | 79 | 1013.1 |
| 20260504024528 | 5 | 0 | 0.0 | 0.0 | 0.00 | 0.00 | 0.00 | 78 | 1013.2 |
| 20260504023028 | 5 | 0 | 0.0 | 0.0 | 0.00 | 0.00 | 0.00 | 77 | 1013.2 |
| 20260504021530 | 6 | 0 | 0.0 | 0.0 | 0.00 | 0.00 | 0.00 | 76 | 1013.2 |
| 20260504020028 | 6 | 0 | 0.0 | 0.0 | 0.00 | 0.00 | 0.00 | 75 | 1013.0 |
| 20260504014534 | 6 | 0 | 0.0 | 0.0 | 0.00 | 0.00 | 0.00 | 73 | 1013.1 |
| 20260504013032 | 7 | 0 | 0.0 | 0.0 | 0.00 | 0.00 | 0.00 | 73 | 1013.0 |
| 20260504011530 | 8 | 0 | 0.0 | 0.0 | 0.00 | 0.00 | 0.00 | 70 | 1012.8 |
| 20260504010028 | 8 | 0 | 0.0 | 0.0 | 0.00 | 0.00 | 0.00 | 66 | 1012.6 |
| 20260504004529 | 10 | 0 | 0.0 | 0.0 | 0.00 | 0.00 | 0.00 | 59 | 1012.4 |
| 20260504003032 | 11 | 0 | 0.0 | 0.0 | 0.00 | 0.00 | 0.00 | 59 | 1012.2 |
| 20260504001531 | 12 | 0 | 0.0 | 0.0 | 0.00 | 0.00 | 0.00 | 50 | 1012.0 |
| 20260504000028 | 13 | 0 | 0.0 | 3.2 | 0.00 | 0.00 | 0.00 | 49 | 1011.8 |
| 20260503234539 | 13 | 268 | 0.0 | 8.0 | 0.00 | 0.00 | 0.00 | 38 | 1011.7 |
| 20260503233036 | 14 | 0 | 0.0 | 6.4 | 0.00 | 0.00 | 0.00 | 37 | 1011.6 |
| 20260503231533 | 14 | 232 | 3.2 | 12.9 | 0.00 | 0.00 | 0.00 | 35 | 1011.6 |
| 20260503230028 | 15 | 268 | 1.6 | 6.4 | 0.00 | 0.00 | 0.00 | 34 | 1011.4 |
| 20260503224529 | 15 | 277 | 3.2 | 16.1 | 0.00 | 0.00 | 0.00 | 35 | 1011.4 |
| 20260503223027 | 15 | 270 | 3.2 | 11.3 | 0.00 | 0.00 | 0.00 | 34 | 1011.4 |
| 20260503221534 | 15 | 300 | 6.4 | 20.9 | 0.00 | 0.00 | 0.00 | 33 | 1011.3 |
| 20260503220028 | 15 | 261 | 4.8 | 12.9 | 0.00 | 0.00 | 0.00 | 32 | 1011.2 |
| 20260503214530 | 15 | 267 | 3.2 | 12.9 | 0.00 | 0.00 | 0.00 | 33 | 1011.2 |
| 20260503213027 | 15 | 315 | 9.7 | 22.5 | 0.00 | 0.00 | 0.00 | 32 | 1011.3 |
| 20260503211528 | 15 | 292 | 4.8 | 17.7 | 0.00 | 0.00 | 0.00 | 34 | 1011.4 |
| 20260503210028 | 15 | 278 | 4.8 | 19.3 | 0.00 | 0.00 | 0.00 | 33 | 1011.3 |
| 20260503204530 | 15 | 267 | 4.8 | 17.7 | 0.00 | 0.00 | 0.00 | 36 | 1011.5 |
| 20260503203036 | 14 | 287 | 4.8 | 19.3 | 0.00 | 0.00 | 0.00 | 36 | 1011.6 |
| 20260503201530 | 14 | 308 | 3.2 | 17.7 | 0.00 | 0.00 | 0.00 | 35 | 1011.6 |
| 20260503200029 | 14 | 279 | 8.0 | 19.3 | 0.00 | 0.00 | 0.00 | 38 | 1011.7 |
| 20260503194528 | 13 | 292 | 9.7 | 25.7 | 0.00 | 0.00 | 0.00 | 33 | 1012.0 |
| 20260503193028 | 13 | 242 | 6.4 | 22.5 | 0.00 | 0.00 | 0.00 | 38 | 1012.0 |
| 20260503191534 | 13 | 180 | 6.4 | 22.5 | 0.00 | 0.00 | 0.00 | 37 | 1012.0 |
| 20260503190028 | 13 | 267 | 8.0 | 22.5 | 0.00 | 0.00 | 0.00 | 36 | 1012.2 |
| 20260503184529 | 13 | 293 | 9.7 | 22.5 | 0.00 | 0.00 | 0.00 | 35 | 1012.4 |
| 20260503183028 | 13 | 0 | 6.4 | 20.9 | 0.00 | 0.00 | 0.00 | 39 | 1012.5 |
| 20260503181529 | 13 | 278 | 6.4 | 33.8 | 0.00 | 0.00 | 0.00 | 39 | 1012.6 |
| 20260503180030 | 12 | 277 | 4.8 | 22.5 | 0.00 | 0.00 | 0.00 | 40 | 1012.5 |
| 20260503174527 | 12 | 277 | 6.4 | 22.5 | 0.00 | 0.00 | 0.00 | 40 | 1012.8 |
| 20260503173029 | 12 | 0 | 8.0 | 17.7 | 0.00 | 0.00 | 0.00 | 40 | 1012.7 |
| 20260503171528 | 12 | 301 | 4.8 | 17.7 | 0.00 | 0.00 | 0.00 | 44 | 1013.0 |